Home   Weather   Lehrte   Past weeks

Flag for Germany Past Weather in Lehrte, Lower Saxony, Germany — Yesterday and Last 2 Weeks

Now
27 °F

Clear.


Feels Like: 19 °F
Forecast: 24 / 38 °F
Wind: 7 mph from Southeast

Location: Hannover

Current Time: Dec 6, 2016 at 10:51:58 pm

Latest Report: Dec 6, 2016 at 10:20 pm


Visibility: 10 mi

Pressure: 30.51 "Hg

Humidity: 86%

Dew Point: 23 °F

Location of LehrteLocation

Past Weather in Lehrte — Graph

°F

Lehrte Temperature Yesterday

Maximum temperature yesterday: 41 °F (at 12:50 pm)
Minimum temperature yesterday: 21 °F (at 3:50 am)
Average temperature yesterday: 27 °F

High & Low Weather Summary for the Past Weeks

 TemperatureHumidityPressure
High57 °F (Nov 22, 11:50 am)100% (Nov 23, 8:20 am)30.60 "Hg (Nov 23, 8:20 am)
Low18 °F (Nov 29, 4:50 am)49% (Dec 5, 12:50 pm)29.59 "Hg (Nov 21, 11:20 pm)
Average36 °F86%30.23 "Hg
* Reported Nov 21 9:20 pm — Dec 6 9:20 pm, Lehrte, Weather by CustomWeather, © 2016

Note: Actual official high and low records may vary slightly from our data, if they occured in-between our weather recording intervals... More about our weather records

Advertising

Lehrte Weather History for the Previous 24 Hours

Scroll right to see more
 ConditionsComfort  
Time TempWeatherWind HumidityBarometerVisibility
9:20 pm
Tue, Dec 6
28 °FClear.7 mph80%30.51 "Hg10 mi
8:50 pm28 °FClear.6 mph80%30.51 "Hg10 mi
8:20 pm28 °FClear.7 mph86%30.51 "Hg10 mi
7:50 pm28 °FClear.7 mph86%30.51 "Hg10 mi
6:50 pm28 °FPassing clouds.5 mph86%30.51 "HgN/A
6:20 pm30 °FPassing clouds.6 mph80%30.51 "HgN/A
5:50 pm30 °FPassing clouds.3 mph80%30.51 "HgN/A
5:20 pm30 °FPassing clouds.3 mph86%30.51 "HgN/A
4:50 pm32 °FPassing clouds.5 mph80%30.48 "HgN/A
4:20 pm34 °FPassing clouds.6 mph75%30.48 "HgN/A
3:50 pm36 °FPassing clouds.3 mph70%30.48 "HgN/A
3:20 pm37 °FPassing clouds.5 mph70%30.48 "HgN/A
2:50 pm37 °FPassing clouds.6 mph70%30.48 "HgN/A
2:20 pm37 °FPassing clouds.7 mph70%30.48 "HgN/A
1:50 pm37 °FScattered clouds.6 mph65%30.45 "HgN/A
1:20 pm37 °FScattered clouds.3 mph65%30.48 "HgN/A
12:50 pm37 °FScattered clouds.2 mph65%30.48 "HgN/A
12:20 pm36 °FPassing clouds.5 mph70%30.45 "HgN/A
11:50 am34 °FPassing clouds.5 mph75%30.45 "HgN/A
11:20 am32 °FPassing clouds.5 mph80%30.45 "HgN/A
10:50 am30 °FPassing clouds.3 mph80%30.45 "HgN/A
10:20 am28 °FPassing clouds.2 mph86%30.45 "HgN/A
9:50 am25 °FPassing clouds.1 mph86%30.45 "HgN/A
9:20 am21 °FScattered clouds.1 mph93%30.45 "HgN/A
8:50 am19 °FFog.1 mph93%30.45 "Hg5 mi
8:20 am18 °FFog.2 mph93%30.45 "Hg5 mi
7:50 am21 °FFog.1 mph93%30.42 "Hg5 mi
7:20 am21 °FFog.No wind93%30.42 "HgN/A
6:50 am21 °FFog.1 mph93%30.42 "HgN/A
6:20 am19 °FFog.2 mph100%30.42 "HgN/A
5:50 am19 °FFog.1 mph93%30.39 "HgN/A
5:20 am18 °FFog.2 mph93%30.39 "HgN/A
4:50 am18 °FFog.2 mph93%30.39 "Hg6 mi
4:20 am19 °FFog.2 mph93%30.39 "Hg5 mi
3:50 am19 °FFog.2 mph93%30.39 "HgN/A
3:20 am21 °FCold.3 mph93%30.39 "Hg5 mi
2:50 am21 °FCold.No wind100%30.36 "Hg3 mi
2:20 am23 °FCold.1 mph93%30.36 "Hg4 mi
1:50 am21 °FCold.1 mph93%30.36 "Hg4 mi
1:20 am21 °FCold.1 mph93%30.36 "Hg4 mi
12:50 am23 °FCold.2 mph93%30.36 "Hg4 mi
12:20 am21 °FFog.1 mph93%30.36 "Hg5 mi
11:50 pm
Mon, Dec 5
23 °FFog.3 mph93%30.36 "Hg5 mi
11:20 pm23 °FFog.1 mph93%30.36 "Hg5 mi
10:50 pm23 °FFog.2 mph93%30.36 "Hg5 mi
10:20 pm21 °FFog.2 mph100%30.33 "Hg5 mi
Weather by CustomWeather, © 2016

See weather overviewHow to use our weather pages